Regional Weather Roundup
Issued by NWS

Home | Current Version | Previous Version | Text Only | Print | Product List | Glossary On
Versions: 1 2 3 4 5 6 7 8 9 10 11 12 13 14 15 16 17 18 19 20 21 22 23 24 25 26 27 28 29 30 31 32 33 34 35 36 37 38 39 40 41 42 43 44 45 46 47 48 49 50
000
ASUS43 KIND 282009
RWRIN

WEATHER ROUNDUP FOR INDIANA
NATIONAL WEATHER SERVICE INDIANAPOLIS IN
400 PM EDT TUE JUN 28 2016

NOTE: "FAIR" INDICATES FEW OR NO CLOUDS BELOW 12,000 FEET WITH NO
SIGNIFICANT WEATHER AND/OR OBSTRUCTIONS TO VISIBILITY.

* - STATION DOES NOT REPORT WEATHER SUCH AS PRECIPITATION OR FOG.

+ - STATION NOT QUALITY CONTROLLED BY THE NATIONAL WEATHER SERVICE.
    USE DATA WITH CAUTION...ESPECIALLY DEWPOINT AND RELATIVE
    HUMIDITY OBSERVATIONS.

INZ001>003-010>013-019-020-282100-
NORTHWEST INDIANA

CITY           SKY/WX    TMP DP  RH WIND       PRES   REMARKS
GARY /AIRPORT/ PTSUNNY   66  57  72 N14G28    30.19R
KNOX *+        CLOUDY    64  43  45 N16       30.15S
LA PORTE +     CLOUDY    64  55  74 N12G17    30.16S
MICHIGAN CITY+ CLOUDY    61  52  72 NW13      30.17S
MONTICELLO +   CLOUDY    70  51  50 N12       30.13S
RENSSELAER +   MOSUNNY   70  55  60 NW9G20    30.15R
VALPARAISO     CLOUDY    63  52  67 N15       30.16S

$$

LMZ046-743>745-282100-
SOUTHERN LAKE MICHIGAN

STATION/POSITION TIME  TEMP    WIND        PRES    WAVE
                       AIR SEA DIR/SP/G            HT
                 (UTC) (F)     (DEG/KT/KT) (MB)    (FT)
BURNS HARBOR     1907   62     360/ 17/ 25 1022.0S
MICHIGAN CITY    1900   61     340/ 20/ 22   N/A
5NW MICH CITY    2000   62 70  350/ 16/ 19   N/A     6

$$

INZ004-005-014>016-021>024-282100-
NORTH CENTRAL INDIANA

CITY           SKY/WX    TMP DP  RH WIND       PRES   REMARKS
ELKHART        CLOUDY    63  57  82 N9        30.14F
GOSHEN         CLOUDY    64  52  64 NW15      30.12F
LOGANSPORT +   CLOUDY    68  54  60 NW7       30.13F
PERU/GRISSOM   CLOUDY    68  55  61 N16       30.11S
ROCHESTER +    CLOUDY    68  55  64 N9        30.13F
SOUTH BEND     CLOUDY    61  53  75 NW12      30.15F
WARSAW +       CLOUDY    63  54  72 NW10G17   30.12F

$$

INZ006>009-017-018-025>027-282100-
NORTHEAST INDIANA

CITY           SKY/WX    TMP DP  RH WIND       PRES   REMARKS
ANGOLA *+      CLOUDY    63  54  72 NW8       30.11S
AUBURN +       CLOUDY    64  52  63 NW9G16    30.11S
FORT WAYNE     CLOUDY    67  54  63 N14G22    30.11R
HUNTINGTON +   CLOUDY    64  53  67 N8        30.12R

$$

INZ028-029-035-036-043>045-051>053-282100-
WEST CENTRAL INDIANA

CITY           SKY/WX    TMP DP  RH WIND       PRES   REMARKS
CRAWFORDSVL +  MOSUNNY   73  58  58 N12G18    30.12S
GREENCASTLE +  PTSUNNY   77  63  61 NW12G17   30.11S
LAFAYETTE      PTSUNNY   71  58  63 N13       30.12F
TERRE HAUTE    PTSUNNY   80  62  54 N12G18    30.09F

$$

INZ030>032-037>040-046>048-054>057-064-065-282100-
CENTRAL INDIANA

CITY           SKY/WX    TMP DP  RH WIND       PRES   REMARKS
ANDERSON       PTSUNNY   73  57  56 NW12G17   30.10
CP ATTERBURY + MOSUNNY   81  59  47 NW10G17   30.07S
COLUMBUS       MOSUNNY   79  63  57 NW12G18   30.06F
FISHERS *+     PTSUNNY  N/A N/A N/A NW13      30.10R
FRANKFORT +      N/A     72  58  62 N13       30.14S
GREENWOOD *+   MOSUNNY   79  57  47 N10       30.08S
INDIANAPOLIS   PTSUNNY   78  59  51 NW17      30.09S
-EAGLE CREEK   MOSUNNY   77  59  53 N12       30.09S
KOKOMO *+      PTSUNNY   70  54  56 NW13G23   30.12R
MARION +       CLOUDY    70  55  60 N9G20     30.11S HAZE
MT COMFORT *+  MOSUNNY   75  59  57 N12       30.09S
SHELBYVILLE    MOSUNNY   80  59  48 N14       30.07S
ZIONSVILLE +   MOSUNNY   73  59  60 N16       30.11S

$$

INZ033-034-041-042-049-050-058-059-282100-
EAST CENTRAL INDIANA

CITY           SKY/WX    TMP DP  RH WIND       PRES   REMARKS
MUNCIE         MOSUNNY   76  55  48 NW15      30.08S

$$

INZ060-061-067>069-081>083-085>088-282100-
SOUTHWEST INDIANA

CITY           SKY/WX    TMP DP  RH WIND       PRES   REMARKS
EVANSVILLE     SUNNY     89  62  40 NW12G17   30.05F
HUNTINGBURG *+ SUNNY     88  64  45 NW6       30.04F
WASHINGTON +   MOSUNNY   85  62  47 N7        30.05F

$$

INZ062-063-066-070>080-084-089>092-282100-
SOUTH CENTRAL AND SOUTHEAST INDIANA

CITY           SKY/WX    TMP DP  RH WIND       PRES   REMARKS
BEDFORD +      MOSUNNY   81  70  69 N8        30.05F
BLOOMINGTON    MOSUNNY   79  60  52 NW6       30.07F
MADISON *+     SUNNY     84  54  34 NW8       30.06F
NORTH VERNON + MOSUNNY   84  63  48 CALM      30.06F
SEYMOUR +      MOSUNNY   88  59  37 NW12G18   30.04F

$$




USA.gov is the U.S. government's official web portal to all federal, state and local government web resources and services.